| time (UTC) | temp F | wind direction | speed knots | gust knots | rain 1hr in | rain 24hr in | rain mn in | humidity % | barometer mb |
| 20260502181942 | 62 | 0.0 | 0.0 | 0.00 | 0.00 | 0.00 | 25 | 1021.8 | |
| 20260502180942 | 63 | 0.0 | 0.0 | 0.00 | 0.00 | 0.00 | 25 | 1021.8 | |
| 20260502163942 | 69 | 0.0 | 0.0 | 0.00 | 0.00 | 0.00 | 22 | 1022.3 | |
| 20260502162942 | 69 | 0.0 | 0.0 | 0.00 | 0.00 | 0.00 | 23 | 1022.4 | |
| 20260502161943 | 70 | 0.0 | 0.0 | 0.00 | 0.00 | 0.00 | 21 | 1022.5 | |
| 20260502160942 | 70 | 0.0 | 0.0 | 0.00 | 0.00 | 0.00 | 20 | 1022.7 | |
| 20260502151942 | 68 | 0.0 | 0.0 | 0.00 | 0.00 | 0.00 | 21 | 1023.1 | |
| 20260502150942 | 70 | 0.0 | 0.0 | 0.00 | 0.00 | 0.00 | 21 | 1023.3 | |
| 20260502122942 | 70 | 0.0 | 0.0 | 0.00 | 0.00 | 0.00 | 22 | 1024.9 | |
| 20260502121942 | 70 | 0.0 | 0.0 | 0.00 | 0.00 | 0.00 | 20 | 1025.0 | |
| 20260502120945 | 70 | 0.0 | 0.0 | 0.00 | 0.00 | 0.00 | 22 | 1025.1 | |
| 20260502120322 | 68 | 0.0 | 0.0 | 0.00 | 0.00 | 0.00 | 23 | 1025.2 | |
| 20260502115322 | 69 | 0.0 | 0.0 | 0.00 | 0.00 | 0.00 | 21 | 1025.3 | |
| 20260502114322 | 66 | 0.0 | 0.0 | 0.00 | 0.00 | 0.00 | 21 | 1025.4 | |
| 20260502113323 | 69 | 0.0 | 0.0 | 0.00 | 0.00 | 0.00 | 21 | 1025.6 | |
| 20260502112322 | 66 | 0.0 | 0.0 | 0.00 | 0.00 | 0.00 | 24 | 1025.6 | |
| 20260502111322 | 68 | 0.0 | 0.0 | 0.00 | 0.00 | 0.00 | 22 | 1025.7 | |
| 20260502110322 | 67 | 0.0 | 0.0 | 0.00 | 0.00 | 0.00 | 21 | 1025.8 | |
| 20260502105322 | 66 | 0.0 | 0.0 | 0.00 | 0.00 | 0.00 | 23 | 1025.9 | |
| 20260502104322 | 69 | 0.0 | 0.0 | 0.00 | 0.00 | 0.00 | 20 | 1025.9 | |
| 20260502103322 | 72 | 0.0 | 0.0 | 0.00 | 0.00 | 0.00 | 18 | 1026.0 | |
| 20260502102322 | 71 | 0.0 | 0.0 | 0.00 | 0.00 | 0.00 | 19 | 1026.1 | |
| 20260502101322 | 72 | 0.0 | 0.0 | 0.00 | 0.00 | 0.00 | 19 | 1026.2 | |
| 20260502100322 | 66 | 0.0 | 0.0 | 0.00 | 0.00 | 0.00 | 24 | 1026.2 | |
| 20260502091322 | 63 | 0.0 | 0.0 | 0.00 | 0.00 | 0.00 | 23 | 1026.5 | |
| 20260502090322 | 65 | 0.0 | 0.0 | 0.00 | 0.00 | 0.00 | 25 | 1026.6 | |
| 20260502071320 | 62 | 0.0 | 0.0 | 0.00 | 0.00 | 0.00 | 28 | 1027.0 | |
| 20260502070320 | 62 | 0.0 | 0.0 | 0.00 | 0.00 | 0.00 | 29 | 1027.1 | |
| 20260502065320 | 61 | 0.0 | 0.0 | 0.00 | 0.00 | 0.00 | 30 | 1027.1 | |
| 20260502064320 | 62 | 0.0 | 0.0 | 0.00 | 0.00 | 0.00 | 29 | 1027.1 | |
| 20260502063320 | 64 | 0.0 | 0.0 | 0.00 | 0.00 | 0.00 | 27 | 1027.0 | |
| 20260502062321 | 64 | 0.0 | 0.0 | 0.00 | 0.00 | 0.00 | 28 | 1027.0 | |
| 20260502061320 | 66 | 0.0 | 0.0 | 0.00 | 0.00 | 0.00 | 27 | 1026.9 | |
| 20260502060320 | 64 | 0.0 | 0.0 | 0.00 | 0.00 | 0.00 | 28 | 1026.9 | |
| 20260502055320 | 65 | 0.0 | 0.0 | 0.00 | 0.00 | 0.00 | 25 | 1026.9 | |
| 20260502054321 | 66 | 0.0 | 0.0 | 0.00 | 0.00 | 0.00 | 26 | 1026.9 | |
| 20260502053320 | 65 | 0.0 | 0.0 | 0.00 | 0.00 | 0.00 | 28 | 1026.8 | |
| 20260502052320 | 66 | 0.0 | 0.0 | 0.00 | 0.00 | 0.00 | 26 | 1026.8 | |
| 20260502051320 | 64 | 0.0 | 0.0 | 0.00 | 0.00 | 0.00 | 29 | 1026.8 | |
| 20260502050320 | 61 | 0.0 | 0.0 | 0.00 | 0.00 | 0.00 | 31 | 1026.8 | |
| 20260502045320 | 60 | 0.0 | 0.0 | 0.00 | 0.00 | 0.00 | 31 | 1026.7 | |
| 20260502044320 | 59 | 0.0 | 0.0 | 0.00 | 0.00 | 0.00 | 32 | 1026.7 | |
| 20260502043323 | 61 | 0.0 | 0.0 | 0.00 | 0.00 | 0.00 | 30 | 1026.8 | |
| 20260502042320 | 62 | 0.0 | 0.0 | 0.00 | 0.00 | 0.00 | 30 | 1026.8 | |
| 20260502041320 | 63 | 0.0 | 0.0 | 0.00 | 0.00 | 0.00 | 30 | 1026.8 | |
| 20260502040320 | 61 | 0.0 | 0.0 | 0.00 | 0.00 | 0.00 | 31 | 1026.8 | |
| 20260502035320 | 58 | 0.0 | 0.0 | 0.00 | 0.00 | 0.00 | 35 | 1026.7 | |
| 20260502034320 | 57 | 0.0 | 0.0 | 0.00 | 0.00 | 0.00 | 35 | 1026.8 | |
| 20260502033320 | 56 | 0.0 | 0.0 | 0.00 | 0.00 | 0.00 | 36 | 1026.8 | |
| 20260502032320 | 58 | 0.0 | 0.0 | 0.00 | 0.00 | 0.00 | 35 | 1026.8 | |
| 20260502031320 | 57 | 0.0 | 0.0 | 0.00 | 0.00 | 0.00 | 35 | 1026.8 | |
| 20260502030320 | 57 | 0.0 | 0.0 | 0.00 | 0.00 | 0.00 | 36 | 1027.0 | |
| 20260502025320 | 58 | 0.0 | 0.0 | 0.00 | 0.00 | 0.00 | 36 | 1027.0 | |
| 20260502024320 | 58 | 0.0 | 0.0 | 0.00 | 0.00 | 0.00 | 35 | 1027.1 | |
| 20260502023320 | 58 | 0.0 | 0.0 | 0.00 | 0.00 | 0.00 | 36 | 1027.2 | |
| 20260502022320 | 57 | 0.0 | 0.0 | 0.00 | 0.00 | 0.00 | 36 | 1027.1 | |
| 20260502021321 | 58 | 0.0 | 0.0 | 0.00 | 0.00 | 0.00 | 35 | 1027.2 | |
| 20260502015320 | 59 | 0.0 | 0.0 | 0.00 | 0.00 | 0.00 | 34 | 1027.2 | |
| 20260502014320 | 57 | 0.0 | 0.0 | 0.00 | 0.00 | 0.00 | 36 | 1027.2 | |
| 20260502013323 | 57 | 0.0 | 0.0 | 0.00 | 0.00 | 0.00 | 36 | 1027.2 | |
| 20260502012320 | 57 | 0.0 | 0.0 | 0.00 | 0.00 | 0.00 | 37 | 1027.3 | |
| 20260502011323 | 58 | 0.0 | 0.0 | 0.00 | 0.00 | 0.00 | 35 | 1027.3 | |
| 20260502005321 | 59 | 0.0 | 0.0 | 0.00 | 0.00 | 0.00 | 34 | 1027.4 | |
| 20260502004320 | 57 | 0.0 | 0.0 | 0.00 | 0.00 | 0.00 | 35 | 1027.4 | |
| 20260502003321 | 59 | 0.0 | 0.0 | 0.00 | 0.00 | 0.00 | 33 | 1027.5 | |
| 20260502002320 | 60 | 0.0 | 0.0 | 0.00 | 0.00 | 0.00 | 32 | 1027.6 | |
| 20260502001320 | 60 | 0.0 | 0.0 | 0.00 | 0.00 | 0.00 | 32 | 1027.7 | |
| 20260502000320 | 60 | 0.0 | 0.0 | 0.00 | 0.00 | 0.00 | 32 | 1027.6 | |
| 20260501235324 | 59 | 0.0 | 0.0 | 0.00 | 0.00 | 0.00 | 33 | 1027.7 | |
| 20260501234320 | 59 | 0.0 | 0.0 | 0.00 | 0.00 | 0.00 | 32 | 1027.7 | |
| 20260501233320 | 60 | 0.0 | 0.0 | 0.00 | 0.00 | 0.00 | 30 | 1027.7 | |
| 20260501232320 | 58 | 0.0 | 0.0 | 0.00 | 0.00 | 0.00 | 32 | 1027.8 | |
| 20260501231320 | 59 | 0.0 | 0.0 | 0.00 | 0.00 | 0.00 | 32 | 1027.9 | |
| 20260501230320 | 56 | 0.0 | 0.0 | 0.00 | 0.00 | 0.00 | 34 | 1027.8 | |
| 20260501225322 | 57 | 0.0 | 0.0 | 0.00 | 0.00 | 0.00 | 34 | 1027.9 | |
| 20260501224320 | 56 | 0.0 | 0.0 | 0.00 | 0.00 | 0.00 | 34 | 1027.9 | |
| 20260501223320 | 56 | 0.0 | 0.0 | 0.00 | 0.00 | 0.00 | 34 | 1028.0 | |
| 20260501222320 | 56 | 0.0 | 0.0 | 0.00 | 0.00 | 0.00 | 34 | 1028.0 | |
| 20260501221321 | 55 | 0.0 | 0.0 | 0.00 | 0.00 | 0.00 | 35 | 1028.0 | |
| 20260501220320 | 55 | 0.0 | 0.0 | 0.00 | 0.00 | 0.00 | 35 | 1028.0 | |
| 20260501215320 | 55 | 0.0 | 0.0 | 0.00 | 0.00 | 0.00 | 35 | 1028.0 | |
| 20260501214320 | 56 | 0.0 | 0.0 | 0.00 | 0.00 | 0.00 | 34 | 1027.9 | |
| 20260501213320 | 56 | 0.0 | 0.0 | 0.00 | 0.00 | 0.00 | 34 | 1027.9 | |
| 20260501212320 | 59 | 0.0 | 0.0 | 0.00 | 0.00 | 0.00 | 33 | 1028.0 | |
| 20260501211320 | 57 | 0.0 | 0.0 | 0.00 | 0.00 | 0.00 | 35 | 1028.0 | |
| 20260501210320 | 56 | 0.0 | 0.0 | 0.00 | 0.00 | 0.00 | 36 | 1028.0 | |
| 20260501205320 | 56 | 0.0 | 0.0 | 0.00 | 0.00 | 0.00 | 35 | 1028.0 | |
| 20260501204325 | 56 | 0.0 | 0.0 | 0.00 | 0.00 | 0.00 | 34 | 1028.1 | |
| 20260501203319 | 57 | 0.0 | 0.0 | 0.00 | 0.00 | 0.00 | 34 | 1028.2 | |
| 20260501202319 | 58 | 0.0 | 0.0 | 0.00 | 0.00 | 0.00 | 33 | 1028.2 | |
| 20260501201319 | 60 | 0.0 | 0.0 | 0.00 | 0.00 | 0.00 | 31 | 1028.3 | |
| 20260501200319 | 61 | 0.0 | 0.0 | 0.00 | 0.00 | 0.00 | 30 | 1028.2 | |
| 20260501195319 | 60 | 0.0 | 0.0 | 0.00 | 0.00 | 0.00 | 30 | 1028.2 | |
| 20260501194319 | 61 | 0.0 | 0.0 | 0.00 | 0.00 | 0.00 | 30 | 1028.2 | |
| 20260501193319 | 61 | 0.0 | 0.0 | 0.00 | 0.00 | 0.00 | 30 | 1028.2 | |
| 20260501192319 | 61 | 0.0 | 0.0 | 0.00 | 0.00 | 0.00 | 30 | 1028.2 | |
| 20260501191321 | 59 | 0.0 | 0.0 | 0.00 | 0.00 | 0.00 | 32 | 1028.2 | |
| 20260501190320 | 59 | 0.0 | 0.0 | 0.00 | 0.00 | 0.00 | 33 | 1028.1 | |
| 20260501185318 | 59 | 0.0 | 0.0 | 0.00 | 0.00 | 0.00 | 32 | 1028.1 | |
| 20260501184319 | 58 | 0.0 | 0.0 | 0.00 | 0.00 | 0.00 | 33 | 1028.1 | |
| 20260501183319 | 60 | 0.0 | 0.0 | 0.00 | 0.00 | 0.00 | 32 | 1028.1 | |
| 20260501182318 | 59 | 0.0 | 0.0 | 0.00 | 0.00 | 0.00 | 33 | 1027.9 |